Weather History for KMLP - October, 2012

Change the Weather History Date:

Tuesday, October 2, 2012

  Actual Average (K3TH) Record (K3TH)
Temperature  
Mean Temperature 40 °F -  
Max Temperature 54 °F 64 °F 77 °F (2001)
Min Temperature 27 °F 41 °F 30 °F (2002)
Degree Days  
Heating Degree Days 24    
Moisture  
Dew Point 31 °F    
Average Humidity 59    
Maximum Humidity 85    
Minimum Humidity 37    
Precipitation  
Precipitation 0.00 in - - ()
Sea Level Pressure  
Sea Level Pressure 29.84 in    
Wind  
Wind Speed 7 mph (West)    
Max Wind Speed 13 mph    
Max Gust Speed 28 mph    
Visibility 10 miles    
Events      
Averages and records for this station are not official NWS values.
T = Trace of Precipitation, MM = Missing Value Source: NWS Daily Summary

Daily Weather History Graph

Daily Weather History Graph

Search for Another Location

Airport or City:

Trip Planner

Search our weather history database for the weather conditions in past years. The results will help you decide how hot, cold, wet, or windy it might be!

Date:

Astronomy

Oct. 02, 2012 Rise Set
Actual Time 6:43 AM PDT 6:18 PM PDT
Civil Twilight 6:13 AM PDT 6:49 PM PDT
Nautical Twilight 5:37 AM PDT 7:25 PM PDT
Astronomical Twilight 5:01 AM PDT 8:01 PM PDT
Moon 7:19 PM PDT (10/2) 9:29 AM PDT (10/2)
Length of Visible Light 12h 36m
Length of Day
11h 35m
Waning Gibbous, 93% of the Moon is Illuminated
Oct 2
Waning Gibbous
Oct 8
Last Quarter
Oct 15
New
Oct 21
First Quarter
Oct 29
Full

Hourly Weather History & Observations

Time (PDT) Temp. Windchill Dew Point Humidity Pressure Visibility Wind Dir Wind Speed Gust Speed Precip Events Conditions
12:53 AM 50.0 °F - 35.1 °F 57% 29.80 in 10.0 mi Variable 4.6 mph - N/A   Clear
1:53 AM 50.0 °F - 37.0 °F 61% 29.78 in 10.0 mi Variable 6.9 mph 27.6 mph N/A   Partly Cloudy
2:53 AM 48.9 °F - 37.0 °F 64% 29.79 in 10.0 mi West 9.2 mph 23.0 mph N/A   Partly Cloudy
3:53 AM 48.0 °F - 39.0 °F 71% 29.78 in 10.0 mi West 9.2 mph 26.5 mph N/A   Clear
4:53 AM 48.0 °F - 37.9 °F 68% 29.78 in 10.0 mi Variable 5.8 mph - N/A   Clear
5:27 AM 46.4 °F 42.9 °F 39.2 °F 76% 30.00 in 10.0 mi Variable 6.9 mph - N/A   Mostly Cloudy
5:48 AM 46.4 °F 42.4 °F 39.2 °F 76% 30.00 in 10.0 mi WSW 8.1 mph 16.1 mph N/A   Overcast
6:53 AM 44.1 °F 40.8 °F 39.9 °F 85% 29.80 in 10.0 mi Variable 5.8 mph - N/A   Scattered Clouds
7:01 AM 44.6 °F 42.2 °F 39.2 °F 81% 30.00 in 10.0 mi Variable 4.6 mph - N/A   Mostly Cloudy
8:02 AM 44.6 °F 40.7 °F 39.2 °F 81% 30.01 in 10.0 mi Variable 6.9 mph 24.2 mph N/A   Overcast
8:53 AM 44.1 °F 40.8 °F 39.0 °F 82% 29.82 in 10.0 mi Variable 5.8 mph 17.3 mph N/A   Overcast
9:48 AM 44.6 °F 40.7 °F 37.4 °F 76% 30.01 in 10.0 mi Variable 6.9 mph 20.7 mph N/A   Mostly Cloudy
9:53 AM 44.1 °F 40.1 °F 37.9 °F 79% 29.82 in 10.0 mi Variable 6.9 mph 20.7 mph N/A   Mostly Cloudy
10:37 AM 46.4 °F 41.9 °F 37.4 °F 71% 30.01 in 10.0 mi WSW 9.2 mph 20.7 mph N/A   Scattered Clouds
10:53 AM 48.0 °F - 36.0 °F 63% 29.80 in 10.0 mi WSW 9.2 mph 18.4 mph N/A   Clear
11:53 AM 51.1 °F - 32.0 °F 48% 29.78 in 10.0 mi West 9.2 mph 18.4 mph N/A   Partly Cloudy
12:53 PM 52.0 °F - 32.0 °F 47% 29.77 in 10.0 mi SW 8.1 mph - N/A   Partly Cloudy
1:53 PM 53.1 °F - 28.0 °F 38% 29.75 in 10.0 mi WSW 12.7 mph 18.4 mph N/A   Partly Cloudy
2:53 PM 53.1 °F - 27.0 °F 37% 29.75 in 10.0 mi Variable 3.5 mph - N/A   Partly Cloudy
3:53 PM 52.0 °F - 26.1 °F 37% 29.75 in 10.0 mi Variable 6.9 mph - N/A   Partly Cloudy
4:53 PM 48.9 °F - 24.1 °F 38% 29.75 in 10.0 mi Variable 6.9 mph - N/A   Clear
5:53 PM 46.0 °F 43.9 °F 21.9 °F 39% 29.78 in 10.0 mi Variable 4.6 mph - N/A   Partly Cloudy
6:53 PM 45.0 °F 40.1 °F 21.0 °F 39% 29.78 in 10.0 mi West 9.2 mph 21.9 mph N/A   Scattered Clouds
7:53 PM 39.0 °F 33.4 °F 25.0 °F 57% 29.79 in 10.0 mi NNW 8.1 mph 19.6 mph N/A   Clear
8:53 PM 36.0 °F 28.5 °F 19.9 °F 52% 29.81 in 10.0 mi NW 10.4 mph 20.7 mph N/A   Clear
9:53 PM 32.0 °F 26.4 °F 16.0 °F 52% 29.84 in 10.0 mi NW 5.8 mph - N/A   Partly Cloudy
10:53 PM 28.9 °F 19.8 °F 8.1 °F 41% 29.84 in 10.0 mi NW 10.4 mph 24.2 mph N/A   Clear
11:53 PM 27.0 °F 18.0 °F 9.0 °F 47% 29.88 in 10.0 mi NNW 9.2 mph 18.4 mph N/A   Clear